| time (UTC) | temp F | wind direction | speed MPH | gust MPH | rain 1hr in | rain 24hr in | rain mn in | humidity % | barometer mb |
| 20260502220204 | 77 | 314 | 3.0 | 8.0 | 0.00 | 0.00 | 0.00 | 38 | 1009.2 |
| 20260502220004 | 77 | 312 | 3.0 | 8.0 | 0.00 | 0.00 | 0.00 | 38 | 1009.2 |
| 20260502215804 | 77 | 309 | 3.0 | 8.0 | 0.00 | 0.00 | 0.00 | 40 | 1009.3 |
| 20260502215604 | 78 | 303 | 3.0 | 8.0 | 0.00 | 0.00 | 0.00 | 39 | 1009.3 |
| 20260502215404 | 78 | 293 | 3.0 | 7.0 | 0.00 | 0.00 | 0.00 | 37 | 1009.3 |
| 20260502215204 | 78 | 291 | 3.0 | 9.0 | 0.00 | 0.00 | 0.00 | 37 | 1009.3 |
| 20260502215025 | 78 | 289 | 4.0 | 9.0 | 0.00 | 0.00 | 0.00 | 38 | 1009.3 |
| 20260502214804 | 78 | 285 | 4.0 | 9.0 | 0.00 | 0.00 | 0.00 | 37 | 1009.4 |
| 20260502214625 | 78 | 280 | 3.0 | 9.0 | 0.00 | 0.00 | 0.00 | 35 | 1009.4 |
| 20260502214404 | 78 | 284 | 4.0 | 9.0 | 0.00 | 0.00 | 0.00 | 36 | 1009.4 |
| 20260502214204 | 78 | 287 | 4.0 | 9.0 | 0.00 | 0.00 | 0.00 | 36 | 1009.4 |
| 20260502214004 | 78 | 284 | 4.0 | 9.0 | 0.00 | 0.00 | 0.00 | 36 | 1009.4 |
| 20260502213804 | 78 | 288 | 4.0 | 9.0 | 0.00 | 0.00 | 0.00 | 36 | 1009.4 |
| 20260502213625 | 78 | 288 | 4.0 | 9.0 | 0.00 | 0.00 | 0.00 | 35 | 1009.4 |
| 20260502213425 | 78 | 284 | 4.0 | 9.0 | 0.00 | 0.00 | 0.00 | 35 | 1009.4 |
| 20260502213205 | 78 | 281 | 3.0 | 9.0 | 0.00 | 0.00 | 0.00 | 36 | 1009.5 |
| 20260502213004 | 78 | 283 | 4.0 | 9.0 | 0.00 | 0.00 | 0.00 | 35 | 1009.5 |
| 20260502212825 | 78 | 282 | 3.0 | 9.0 | 0.00 | 0.00 | 0.00 | 34 | 1009.5 |
| 20260502212604 | 78 | 284 | 3.0 | 7.0 | 0.00 | 0.00 | 0.00 | 34 | 1009.4 |
| 20260502212404 | 78 | 282 | 3.0 | 8.0 | 0.00 | 0.00 | 0.00 | 34 | 1009.6 |
| 20260502212204 | 78 | 282 | 3.0 | 8.0 | 0.00 | 0.00 | 0.00 | 34 | 1009.5 |
| 20260502212004 | 78 | 283 | 3.0 | 8.0 | 0.00 | 0.00 | 0.00 | 34 | 1009.5 |
| 20260502211805 | 78 | 287 | 3.0 | 8.0 | 0.00 | 0.00 | 0.00 | 34 | 1009.5 |
| 20260502211604 | 78 | 288 | 3.0 | 8.0 | 0.00 | 0.00 | 0.00 | 34 | 1009.5 |
| 20260502211404 | 78 | 296 | 2.0 | 7.0 | 0.00 | 0.00 | 0.00 | 35 | 1009.4 |
| 20260502211204 | 78 | 294 | 2.0 | 7.0 | 0.00 | 0.00 | 0.00 | 35 | 1009.4 |
| 20260502211004 | 78 | 293 | 3.0 | 7.0 | 0.00 | 0.00 | 0.00 | 33 | 1009.4 |
| 20260502210805 | 77 | 288 | 3.0 | 7.0 | 0.00 | 0.00 | 0.00 | 34 | 1009.4 |
| 20260502210604 | 77 | 282 | 2.0 | 10.0 | 0.00 | 0.00 | 0.00 | 34 | 1009.4 |
| 20260502210404 | 77 | 282 | 3.0 | 10.0 | 0.00 | 0.00 | 0.00 | 32 | 1009.6 |
| 20260502210204 | 77 | 279 | 2.0 | 10.0 | 0.00 | 0.00 | 0.00 | 33 | 1009.6 |
| 20260502210004 | 77 | 275 | 2.0 | 10.0 | 0.00 | 0.00 | 0.00 | 35 | 1009.7 |
| 20260502205804 | 77 | 270 | 2.0 | 10.0 | 0.00 | 0.00 | 0.00 | 36 | 1009.7 |
| 20260502205604 | 77 | 282 | 2.0 | 7.0 | 0.00 | 0.00 | 0.00 | 34 | 1009.7 |
| 20260502205404 | 77 | 276 | 3.0 | 7.0 | 0.00 | 0.00 | 0.00 | 34 | 1009.7 |
| 20260502205204 | 77 | 282 | 3.0 | 7.0 | 0.00 | 0.00 | 0.00 | 35 | 1009.8 |
| 20260502205004 | 77 | 281 | 4.0 | 8.0 | 0.00 | 0.00 | 0.00 | 34 | 1009.8 |
| 20260502204804 | 77 | 285 | 4.0 | 8.0 | 0.00 | 0.00 | 0.00 | 36 | 1009.8 |
| 20260502204604 | 77 | 279 | 4.0 | 8.0 | 0.00 | 0.00 | 0.00 | 36 | 1009.7 |
| 20260502204404 | 77 | 286 | 3.0 | 8.0 | 0.00 | 0.00 | 0.00 | 36 | 1009.7 |
| 20260502204204 | 77 | 286 | 4.0 | 8.0 | 0.00 | 0.00 | 0.00 | 35 | 1009.8 |
| 20260502204004 | 77 | 290 | 3.0 | 7.0 | 0.00 | 0.00 | 0.00 | 37 | 1009.8 |
| 20260502203804 | 77 | 290 | 3.0 | 7.0 | 0.00 | 0.00 | 0.00 | 36 | 1009.7 |
| 20260502203604 | 76 | 292 | 3.0 | 7.0 | 0.00 | 0.00 | 0.00 | 37 | 1009.8 |
| 20260502203404 | 76 | 287 | 3.0 | 7.0 | 0.00 | 0.00 | 0.00 | 37 | 1009.8 |
| 20260502203204 | 76 | 280 | 3.0 | 7.0 | 0.00 | 0.00 | 0.00 | 36 | 1009.8 |
| 20260502203025 | 77 | 269 | 3.0 | 7.0 | 0.00 | 0.00 | 0.00 | 36 | 1009.8 |
| 20260502202804 | 77 | 258 | 3.0 | 7.0 | 0.00 | 0.00 | 0.00 | 37 | 1009.9 |
| 20260502202605 | 77 | 255 | 3.0 | 7.0 | 0.00 | 0.00 | 0.00 | 36 | 1009.9 |
| 20260502202425 | 76 | 266 | 3.0 | 7.0 | 0.00 | 0.00 | 0.00 | 36 | 1009.9 |
| 20260502202225 | 76 | 268 | 3.0 | 7.0 | 0.00 | 0.00 | 0.00 | 37 | 1009.9 |
| 20260502202004 | 76 | 266 | 3.0 | 8.0 | 0.00 | 0.00 | 0.00 | 37 | 1009.9 |
| 20260502201804 | 76 | 274 | 3.0 | 8.0 | 0.00 | 0.00 | 0.00 | 36 | 1009.9 |
| 20260502201626 | 77 | 275 | 3.0 | 8.0 | 0.00 | 0.00 | 0.00 | 35 | 1010.0 |
| 20260502201405 | 76 | 270 | 2.0 | 8.0 | 0.00 | 0.00 | 0.00 | 36 | 1010.0 |
| 20260502201204 | 76 | 275 | 2.0 | 8.0 | 0.00 | 0.00 | 0.00 | 36 | 1010.0 |
| 20260502201004 | 76 | 285 | 2.0 | 6.0 | 0.00 | 0.00 | 0.00 | 38 | 1010.0 |
| 20260502200825 | 76 | 285 | 2.0 | 6.0 | 0.00 | 0.00 | 0.00 | 36 | 1010.0 |
| 20260502200604 | 76 | 278 | 2.0 | 6.0 | 0.00 | 0.00 | 0.00 | 37 | 1010.1 |
| 20260502200404 | 76 | 274 | 2.0 | 6.0 | 0.00 | 0.00 | 0.00 | 39 | 1010.1 |
| 20260502200204 | 76 | 275 | 2.0 | 6.0 | 0.00 | 0.00 | 0.00 | 39 | 1010.1 |
| 20260502200004 | 76 | 276 | 2.0 | 6.0 | 0.00 | 0.00 | 0.00 | 39 | 1010.1 |
| 20260502195804 | 76 | 277 | 2.0 | 6.0 | 0.00 | 0.00 | 0.00 | 39 | 1010.2 |
| 20260502195604 | 76 | 280 | 2.0 | 6.0 | 0.00 | 0.00 | 0.00 | 42 | 1010.2 |
| 20260502195404 | 76 | 284 | 2.0 | 7.0 | 0.00 | 0.00 | 0.00 | 41 | 1010.3 |
| 20260502195225 | 76 | 290 | 2.0 | 7.0 | 0.00 | 0.00 | 0.00 | 41 | 1010.4 |
| 20260502195025 | 75 | 289 | 3.0 | 7.0 | 0.00 | 0.00 | 0.00 | 42 | 1010.5 |
| 20260502194804 | 75 | 284 | 3.0 | 9.0 | 0.00 | 0.00 | 0.00 | 42 | 1010.5 |
| 20260502194625 | 75 | 275 | 3.0 | 9.0 | 0.00 | 0.00 | 0.00 | 42 | 1010.5 |
| 20260502194404 | 74 | 271 | 2.0 | 9.0 | 0.00 | 0.00 | 0.00 | 44 | 1010.5 |
| 20260502194204 | 74 | 260 | 2.0 | 9.0 | 0.00 | 0.00 | 0.00 | 44 | 1010.6 |
| 20260502194004 | 74 | 268 | 2.0 | 7.0 | 0.00 | 0.00 | 0.00 | 44 | 1010.6 |
| 20260502193804 | 75 | 278 | 2.0 | 7.0 | 0.00 | 0.00 | 0.00 | 43 | 1010.6 |
| 20260502193625 | 74 | 294 | 2.0 | 7.0 | 0.00 | 0.00 | 0.00 | 46 | 1010.6 |
| 20260502193404 | 74 | 298 | 3.0 | 7.0 | 0.00 | 0.00 | 0.00 | 47 | 1010.7 |
| 20260502193204 | 74 | 297 | 4.0 | 7.0 | 0.00 | 0.00 | 0.00 | 46 | 1010.6 |
| 20260502193004 | 74 | 293 | 3.0 | 7.0 | 0.00 | 0.00 | 0.00 | 46 | 1010.6 |
| 20260502192804 | 74 | 288 | 4.0 | 7.0 | 0.00 | 0.00 | 0.00 | 47 | 1010.6 |
| 20260502192626 | 74 | 282 | 4.0 | 7.0 | 0.00 | 0.00 | 0.00 | 46 | 1010.7 |
| 20260502192404 | 74 | 269 | 3.0 | 7.0 | 0.00 | 0.00 | 0.00 | 46 | 1010.7 |
| 20260502192204 | 74 | 272 | 4.0 | 7.0 | 0.00 | 0.00 | 0.00 | 46 | 1010.7 |
| 20260502192025 | 74 | 277 | 4.0 | 9.0 | 0.00 | 0.00 | 0.00 | 45 | 1010.8 |
| 20260502191825 | 74 | 280 | 4.0 | 9.0 | 0.00 | 0.00 | 0.00 | 47 | 1010.7 |
| 20260502191604 | 74 | 287 | 4.0 | 9.0 | 0.00 | 0.00 | 0.00 | 44 | 1010.8 |
| 20260502191425 | 74 | 290 | 4.0 | 9.0 | 0.00 | 0.00 | 0.00 | 46 | 1010.8 |
| 20260502191204 | 74 | 292 | 4.0 | 9.0 | 0.00 | 0.00 | 0.00 | 46 | 1010.8 |
| 20260502191004 | 74 | 291 | 4.0 | 9.0 | 0.00 | 0.00 | 0.00 | 45 | 1010.8 |
| 20260502190804 | 74 | 289 | 3.0 | 8.0 | 0.00 | 0.00 | 0.00 | 46 | 1010.8 |
| 20260502190604 | 74 | 286 | 3.0 | 8.0 | 0.00 | 0.00 | 0.00 | 44 | 1010.8 |
| 20260502190425 | 74 | 291 | 3.0 | 6.0 | 0.00 | 0.00 | 0.00 | 45 | 1010.7 |
| 20260502190225 | 74 | 286 | 3.0 | 6.0 | 0.00 | 0.00 | 0.00 | 44 | 1010.7 |
| 20260502190004 | 74 | 290 | 3.0 | 6.0 | 0.00 | 0.00 | 0.00 | 46 | 1010.7 |
| 20260502185804 | 74 | 296 | 3.0 | 6.0 | 0.00 | 0.00 | 0.00 | 45 | 1010.8 |
| 20260502185604 | 74 | 299 | 3.0 | 6.0 | 0.00 | 0.00 | 0.00 | 48 | 1010.8 |
| 20260502185404 | 74 | 298 | 2.0 | 6.0 | 0.00 | 0.00 | 0.00 | 46 | 1010.8 |
| 20260502185204 | 74 | 312 | 2.0 | 6.0 | 0.00 | 0.00 | 0.00 | 48 | 1010.8 |
| 20260502185004 | 74 | 310 | 2.0 | 8.0 | 0.00 | 0.00 | 0.00 | 48 | 1010.9 |
| 20260502184804 | 74 | 308 | 2.0 | 8.0 | 0.00 | 0.00 | 0.00 | 48 | 1011.0 |
| 20260502184604 | 73 | 313 | 2.0 | 8.0 | 0.00 | 0.00 | 0.00 | 49 | 1010.9 |
| 20260502184404 | 73 | 310 | 2.0 | 8.0 | 0.00 | 0.00 | 0.00 | 49 | 1011.0 |
| 20260502184204 | 73 | 307 | 2.0 | 8.0 | 0.00 | 0.00 | 0.00 | 49 | 1011.1 |
| 20260502184004 | 73 | 291 | 1.0 | 6.0 | 0.00 | 0.00 | 0.00 | 50 | 1011.0 |
| 20260502183804 | 73 | 286 | 2.0 | 6.0 | 0.00 | 0.00 | 0.00 | 51 | 1011.1 |
| 20260502183604 | 72 | 280 | 2.0 | 6.0 | 0.00 | 0.00 | 0.00 | 50 | 1011.1 |
| 20260502183404 | 72 | 284 | 1.0 | 6.0 | 0.00 | 0.00 | 0.00 | 51 | 1011.2 |
| 20260502183204 | 72 | 284 | 1.0 | 6.0 | 0.00 | 0.00 | 0.00 | 50 | 1011.2 |
| 20260502183005 | 72 | 305 | 1.0 | 6.0 | 0.00 | 0.00 | 0.00 | 50 | 1011.2 |
| 20260502182804 | 72 | 313 | 1.0 | 4.0 | 0.00 | 0.00 | 0.00 | 50 | 1011.2 |
| 20260502182604 | 72 | 311 | 1.0 | 4.0 | 0.00 | 0.00 | 0.00 | 52 | 1011.3 |
| 20260502182404 | 72 | 307 | 1.0 | 4.0 | 0.00 | 0.00 | 0.00 | 52 | 1011.3 |
| 20260502182205 | 71 | 304 | 1.0 | 4.0 | 0.00 | 0.00 | 0.00 | 51 | 1011.3 |
| 20260502182004 | 71 | 290 | 1.0 | 4.0 | 0.00 | 0.00 | 0.00 | 52 | 1011.3 |
| 20260502181825 | 71 | 290 | 1.0 | 4.0 | 0.00 | 0.00 | 0.00 | 52 | 1011.3 |
| 20260502181625 | 71 | 295 | 1.0 | 6.0 | 0.00 | 0.00 | 0.00 | 54 | 1011.4 |
| 20260502181404 | 70 | 298 | 2.0 | 6.0 | 0.00 | 0.00 | 0.00 | 55 | 1011.4 |
| 20260502181204 | 70 | 299 | 3.0 | 9.0 | 0.00 | 0.00 | 0.00 | 54 | 1011.4 |
| 20260502181004 | 70 | 296 | 3.0 | 9.0 | 0.00 | 0.00 | 0.00 | 55 | 1011.5 |
| 20260502180825 | 70 | 297 | 3.0 | 9.0 | 0.00 | 0.00 | 0.00 | 54 | 1011.5 |
| 20260502180605 | 70 | 294 | 3.0 | 9.0 | 0.00 | 0.00 | 0.00 | 54 | 1011.5 |
| 20260502180404 | 70 | 283 | 3.0 | 9.0 | 0.00 | 0.00 | 0.00 | 53 | 1011.5 |
| 20260502180204 | 70 | 278 | 2.0 | 5.0 | 0.00 | 0.00 | 0.00 | 53 | 1011.4 |
| 20260502170404 | 69 | 290 | 1.0 | 6.0 | 0.00 | 0.00 | 0.00 | 57 | 1011.4 |
| 20260502170225 | 69 | 291 | 1.0 | 6.0 | 0.00 | 0.00 | 0.00 | 57 | 1011.4 |
| 20260502164204 | 68 | 294 | 0.0 | 2.0 | 0.00 | 0.00 | 0.00 | 57 | 1011.4 |
| 20260502164004 | 68 | 284 | 0.0 | 2.0 | 0.00 | 0.00 | 0.00 | 58 | 1011.4 |
| 20260502163804 | 68 | 284 | 0.0 | 2.0 | 0.00 | 0.00 | 0.00 | 57 | 1011.4 |
| 20260502163604 | 68 | 0 | 0.0 | 0.0 | 0.00 | 0.00 | 0.00 | 57 | 1011.4 |
| 20260502163425 | 68 | 0 | 0.0 | 0.0 | 0.00 | 0.00 | 0.00 | 57 | 1011.5 |
| 20260502163204 | 68 | 302 | 0.0 | 1.0 | 0.00 | 0.00 | 0.00 | 59 | 1011.5 |
| 20260502163004 | 67 | 302 | 0.0 | 1.0 | 0.00 | 0.00 | 0.00 | 58 | 1011.5 |
| 20260502162804 | 67 | 302 | 0.0 | 1.0 | 0.00 | 0.00 | 0.00 | 59 | 1011.6 |
| 20260502162604 | 67 | 315 | 0.0 | 4.0 | 0.00 | 0.00 | 0.00 | 59 | 1011.6 |
| 20260502162404 | 67 | 313 | 0.0 | 5.0 | 0.00 | 0.00 | 0.00 | 59 | 1011.6 |
| 20260502162204 | 66 | 313 | 0.0 | 5.0 | 0.00 | 0.00 | 0.00 | 59 | 1011.6 |
| 20260502162004 | 67 | 313 | 0.0 | 5.0 | 0.00 | 0.00 | 0.00 | 59 | 1011.7 |
| 20260502161804 | 67 | 306 | 1.0 | 5.0 | 0.00 | 0.00 | 0.00 | 60 | 1011.8 |
| 20260502161604 | 67 | 296 | 0.0 | 5.0 | 0.00 | 0.00 | 0.00 | 59 | 1011.8 |
| 20260502161425 | 67 | 294 | 0.0 | 4.0 | 0.00 | 0.00 | 0.00 | 59 | 1011.8 |
| 20260502161204 | 67 | 297 | 0.0 | 4.0 | 0.00 | 0.00 | 0.00 | 59 | 1011.9 |
| 20260502161004 | 67 | 297 | 0.0 | 4.0 | 0.00 | 0.00 | 0.00 | 58 | 1011.9 |
| 20260502160804 | 67 | 311 | 0.0 | 4.0 | 0.00 | 0.00 | 0.00 | 58 | 1011.9 |
| 20260502160625 | 67 | 311 | 0.0 | 4.0 | 0.00 | 0.00 | 0.00 | 58 | 1011.9 |
| 20260502160404 | 67 | 297 | 0.0 | 1.0 | 0.00 | 0.00 | 0.00 | 58 | 1011.9 |
| 20260502160225 | 67 | 290 | 0.0 | 1.0 | 0.00 | 0.00 | 0.00 | 58 | 1011.9 |
| 20260502152205 | 66 | 0 | 0.0 | 0.0 | 0.00 | 0.00 | 0.00 | 56 | 1011.6 |
| 20260502152004 | 66 | 0 | 0.0 | 0.0 | 0.00 | 0.00 | 0.00 | 56 | 1011.7 |
| 20260502151826 | 66 | 0 | 0.0 | 0.0 | 0.00 | 0.00 | 0.00 | 57 | 1011.7 |
| 20260502151604 | 66 | 0 | 0.0 | 0.0 | 0.00 | 0.00 | 0.00 | 56 | 1011.8 |
| 20260502151404 | 66 | 0 | 0.0 | 0.0 | 0.00 | 0.00 | 0.00 | 55 | 1011.7 |
| 20260502151204 | 66 | 0 | 0.0 | 0.0 | 0.00 | 0.00 | 0.00 | 56 | 1011.8 |
| 20260502151004 | 66 | 0 | 0.0 | 0.0 | 0.00 | 0.00 | 0.00 | 57 | 1011.8 |
| 20260502150804 | 66 | 0 | 0.0 | 0.0 | 0.00 | 0.00 | 0.00 | 58 | 1011.8 |
| 20260502150604 | 66 | 0 | 0.0 | 0.0 | 0.00 | 0.00 | 0.00 | 59 | 1011.7 |
| 20260502150404 | 66 | 0 | 0.0 | 0.0 | 0.00 | 0.00 | 0.00 | 61 | 1011.8 |
| 20260502150204 | 65 | 0 | 0.0 | 0.0 | 0.00 | 0.00 | 0.00 | 62 | 1011.8 |
| 20260502130604 | 58 | 89 | 0.0 | 2.0 | 0.00 | 0.00 | 0.00 | 45 | 1011.4 |
| 20260502130404 | 58 | 88 | 0.0 | 2.0 | 0.00 | 0.00 | 0.00 | 45 | 1011.4 |
| 20260502130204 | 58 | 88 | 0.0 | 2.0 | 0.00 | 0.00 | 0.00 | 44 | 1011.3 |
| 20260502123804 | 60 | 0 | 0.0 | 0.0 | 0.00 | 0.00 | 0.00 | 47 | 1010.9 |
| 20260502123604 | 60 | 0 | 0.0 | 0.0 | 0.00 | 0.00 | 0.00 | 48 | 1010.9 |
| 20260502123404 | 60 | 0 | 0.0 | 0.0 | 0.00 | 0.00 | 0.00 | 50 | 1010.8 |
| 20260502123204 | 60 | 0 | 0.0 | 0.0 | 0.00 | 0.00 | 0.00 | 51 | 1010.8 |
| 20260502123004 | 60 | 0 | 0.0 | 0.0 | 0.00 | 0.00 | 0.00 | 51 | 1010.8 |
| 20260502122825 | 59 | 0 | 0.0 | 0.0 | 0.00 | 0.00 | 0.00 | 49 | 1010.8 |
| 20260502122604 | 58 | 0 | 0.0 | 0.0 | 0.00 | 0.00 | 0.00 | 47 | 1010.8 |
| 20260502122404 | 58 | 0 | 0.0 | 0.0 | 0.00 | 0.00 | 0.00 | 49 | 1010.8 |
| 20260502122204 | 59 | 0 | 0.0 | 0.0 | 0.00 | 0.00 | 0.00 | 51 | 1010.7 |
| 20260502122004 | 59 | 0 | 0.0 | 0.0 | 0.00 | 0.00 | 0.00 | 54 | 1010.7 |
| 20260502121805 | 58 | 0 | 0.0 | 0.0 | 0.00 | 0.00 | 0.00 | 54 | 1010.7 |
| 20260502121604 | 58 | 0 | 0.0 | 0.0 | 0.00 | 0.00 | 0.00 | 52 | 1010.7 |
| 20260502121404 | 58 | 0 | 0.0 | 0.0 | 0.00 | 0.00 | 0.00 | 47 | 1010.8 |
| 20260502121204 | 58 | 0 | 0.0 | 0.0 | 0.00 | 0.00 | 0.00 | 52 | 1010.8 |
| 20260502121005 | 58 | 0 | 0.0 | 0.0 | 0.00 | 0.00 | 0.00 | 55 | 1010.8 |
| 20260502120804 | 58 | 0 | 0.0 | 0.0 | 0.00 | 0.00 | 0.00 | 54 | 1010.8 |
| 20260502120604 | 58 | 0 | 0.0 | 0.0 | 0.00 | 0.00 | 0.00 | 53 | 1010.7 |
| 20260502120404 | 58 | 0 | 0.0 | 0.0 | 0.00 | 0.00 | 0.00 | 53 | 1010.7 |
| 20260502120204 | 58 | 0 | 0.0 | 0.0 | 0.00 | 0.00 | 0.00 | 52 | 1010.8 |
| 20260502115804 | 58 | 0 | 0.0 | 0.0 | 0.00 | 0.00 | 0.00 | 51 | 1010.8 |
| 20260502115625 | 58 | 0 | 0.0 | 0.0 | 0.00 | 0.00 | 0.00 | 55 | 1010.8 |
| 20260502115425 | 58 | 0 | 0.0 | 0.0 | 0.00 | 0.00 | 0.00 | 58 | 1010.8 |
| 20260502115204 | 58 | 0 | 0.0 | 0.0 | 0.00 | 0.00 | 0.00 | 57 | 1010.8 |
| 20260502115004 | 58 | 0 | 0.0 | 0.0 | 0.00 | 0.00 | 0.00 | 52 | 1010.8 |
| 20260502114804 | 58 | 0 | 0.0 | 0.0 | 0.00 | 0.00 | 0.00 | 52 | 1010.8 |
| 20260502114604 | 58 | 0 | 0.0 | 0.0 | 0.00 | 0.00 | 0.00 | 53 | 1010.9 |
| 20260502114225 | 59 | 0 | 0.0 | 0.0 | 0.00 | 0.00 | 0.00 | 54 | 1010.9 |
| 20260502114004 | 59 | 0 | 0.0 | 0.0 | 0.00 | 0.00 | 0.00 | 56 | 1010.9 |
| 20260502113804 | 58 | 0 | 0.0 | 0.0 | 0.00 | 0.00 | 0.00 | 55 | 1010.9 |
| 20260502113604 | 58 | 0 | 0.0 | 0.0 | 0.00 | 0.00 | 0.00 | 54 | 1010.9 |
| 20260502113404 | 58 | 0 | 0.0 | 0.0 | 0.00 | 0.00 | 0.00 | 54 | 1011.0 |
| 20260502113204 | 58 | 0 | 0.0 | 0.0 | 0.00 | 0.00 | 0.00 | 55 | 1011.0 |
| 20260502113004 | 58 | 0 | 0.0 | 0.0 | 0.00 | 0.00 | 0.00 | 55 | 1011.0 |
| 20260502112804 | 58 | 0 | 0.0 | 0.0 | 0.00 | 0.00 | 0.00 | 55 | 1010.9 |
| 20260502112604 | 58 | 0 | 0.0 | 0.0 | 0.00 | 0.00 | 0.00 | 53 | 1010.9 |
| 20260502112404 | 58 | 0 | 0.0 | 0.0 | 0.00 | 0.00 | 0.00 | 52 | 1010.9 |
| 20260502112225 | 59 | 0 | 0.0 | 0.0 | 0.00 | 0.00 | 0.00 | 52 | 1010.8 |
| 20260502112025 | 59 | 0 | 0.0 | 0.0 | 0.00 | 0.00 | 0.00 | 51 | 1010.9 |
| 20260502111805 | 59 | 0 | 0.0 | 0.0 | 0.00 | 0.00 | 0.00 | 51 | 1010.9 |
| 20260502111604 | 59 | 0 | 0.0 | 0.0 | 0.00 | 0.00 | 0.00 | 51 | 1010.9 |
| 20260502111404 | 59 | 0 | 0.0 | 0.0 | 0.00 | 0.00 | 0.00 | 52 | 1010.9 |
| 20260502111225 | 58 | 0 | 0.0 | 0.0 | 0.00 | 0.00 | 0.00 | 50 | 1010.9 |
| 20260502111004 | 59 | 0 | 0.0 | 0.0 | 0.00 | 0.00 | 0.00 | 48 | 1010.9 |
| 20260502110804 | 59 | 0 | 0.0 | 0.0 | 0.00 | 0.00 | 0.00 | 51 | 1010.9 |
| 20260502110604 | 59 | 0 | 0.0 | 0.0 | 0.00 | 0.00 | 0.00 | 49 | 1010.9 |
| 20260502110404 | 59 | 0 | 0.0 | 0.0 | 0.00 | 0.00 | 0.00 | 49 | 1010.8 |
| 20260502110204 | 59 | 0 | 0.0 | 0.0 | 0.00 | 0.00 | 0.00 | 49 | 1010.8 |
| 20260502110004 | 60 | 0 | 0.0 | 0.0 | 0.00 | 0.00 | 0.00 | 50 | 1010.8 |
| 20260502105804 | 60 | 0 | 0.0 | 0.0 | 0.00 | 0.00 | 0.00 | 50 | 1010.8 |
| 20260502105604 | 60 | 0 | 0.0 | 0.0 | 0.00 | 0.00 | 0.00 | 50 | 1010.9 |
| 20260502105404 | 60 | 0 | 0.0 | 0.0 | 0.00 | 0.00 | 0.00 | 46 | 1010.9 |
| 20260502105204 | 60 | 0 | 0.0 | 0.0 | 0.00 | 0.00 | 0.00 | 45 | 1010.9 |
| 20260502105004 | 60 | 0 | 0.0 | 0.0 | 0.00 | 0.00 | 0.00 | 45 | 1010.9 |
| 20260502104804 | 60 | 0 | 0.0 | 0.0 | 0.00 | 0.00 | 0.00 | 46 | 1010.9 |
| 20260502104604 | 60 | 0 | 0.0 | 0.0 | 0.00 | 0.00 | 0.00 | 45 | 1010.8 |
| 20260502104404 | 60 | 0 | 0.0 | 0.0 | 0.00 | 0.00 | 0.00 | 45 | 1010.8 |
| 20260502104204 | 60 | 0 | 0.0 | 0.0 | 0.00 | 0.00 | 0.00 | 46 | 1010.8 |
| 20260502104025 | 60 | 80 | 0.0 | 2.0 | 0.00 | 0.00 | 0.00 | 46 | 1010.8 |
| 20260502103804 | 60 | 83 | 1.0 | 3.0 | 0.00 | 0.00 | 0.00 | 47 | 1010.8 |
| 20260502103604 | 60 | 83 | 1.0 | 3.0 | 0.00 | 0.00 | 0.00 | 50 | 1010.8 |
| 20260502103404 | 60 | 83 | 1.0 | 3.0 | 0.00 | 0.00 | 0.00 | 46 | 1010.7 |
| 20260502103225 | 60 | 83 | 1.0 | 3.0 | 0.00 | 0.00 | 0.00 | 46 | 1010.8 |
| 20260502103004 | 60 | 84 | 0.0 | 3.0 | 0.00 | 0.00 | 0.00 | 48 | 1010.8 |
| 20260502102804 | 60 | 88 | 0.0 | 2.0 | 0.00 | 0.00 | 0.00 | 51 | 1010.7 |
| 20260502102605 | 60 | 88 | 0.0 | 2.0 | 0.00 | 0.00 | 0.00 | 51 | 1010.8 |
| 20260502102405 | 60 | 84 | 0.0 | 2.0 | 0.00 | 0.00 | 0.00 | 51 | 1010.8 |
| 20260502102204 | 60 | 84 | 1.0 | 2.0 | 0.00 | 0.00 | 0.00 | 51 | 1010.8 |
| 20260502102025 | 60 | 85 | 1.0 | 2.0 | 0.00 | 0.00 | 0.00 | 51 | 1010.8 |
| 20260502101405 | 60 | 85 | 1.0 | 3.0 | 0.00 | 0.00 | 0.00 | 54 | 1010.8 |
| 20260502101204 | 59 | 86 | 1.0 | 3.0 | 0.00 | 0.00 | 0.00 | 55 | 1010.9 |
| 20260502101004 | 59 | 83 | 0.0 | 3.0 | 0.00 | 0.00 | 0.00 | 54 | 1010.8 |
| 20260502100804 | 59 | 81 | 0.0 | 1.0 | 0.00 | 0.00 | 0.00 | 55 | 1010.9 |
| 20260502100604 | 59 | 81 | 0.0 | 1.0 | 0.00 | 0.00 | 0.00 | 55 | 1010.8 |
| 20260502100404 | 59 | 81 | 0.0 | 1.0 | 0.00 | 0.00 | 0.00 | 55 | 1010.8 |
| 20260502100204 | 59 | 0 | 0.0 | 0.0 | 0.00 | 0.00 | 0.00 | 54 | 1010.9 |
| 20260502091404 | 58 | 82 | 1.0 | 4.0 | 0.00 | 0.00 | 0.00 | 62 | 1011.3 |
| 20260502091204 | 58 | 81 | 1.0 | 4.0 | 0.00 | 0.00 | 0.00 | 61 | 1011.4 |
| 20260502091005 | 58 | 74 | 0.0 | 3.0 | 0.00 | 0.00 | 0.00 | 63 | 1011.4 |
| 20260502090804 | 59 | 0 | 0.0 | 0.0 | 0.00 | 0.00 | 0.00 | 64 | 1011.4 |
| 20260502090604 | 59 | 0 | 0.0 | 0.0 | 0.00 | 0.00 | 0.00 | 64 | 1011.4 |
| 20260502090404 | 59 | 0 | 0.0 | 0.0 | 0.00 | 0.00 | 0.00 | 65 | 1011.4 |
| 20260502090204 | 59 | 0 | 0.0 | 0.0 | 0.00 | 0.00 | 0.00 | 65 | 1011.4 |
| 20260502071404 | 60 | 83 | 1.0 | 3.0 | 0.00 | 0.00 | 0.00 | 68 | 1011.9 |
| 20260502071204 | 60 | 83 | 2.0 | 3.0 | 0.00 | 0.00 | 0.00 | 69 | 1011.9 |
| 20260502071004 | 60 | 83 | 1.0 | 3.0 | 0.00 | 0.00 | 0.00 | 69 | 1012.0 |
| 20260502070825 | 60 | 84 | 1.0 | 2.0 | 0.00 | 0.00 | 0.00 | 69 | 1012.0 |
| 20260502070604 | 60 | 85 | 1.0 | 2.0 | 0.00 | 0.00 | 0.00 | 69 | 1012.0 |
| 20260502070404 | 60 | 86 | 0.0 | 2.0 | 0.00 | 0.00 | 0.00 | 69 | 1012.0 |
| 20260502070204 | 60 | 89 | 0.0 | 2.0 | 0.00 | 0.00 | 0.00 | 69 | 1012.0 |
| 20260502070004 | 60 | 0 | 0.0 | 0.0 | 0.00 | 0.00 | 0.00 | 69 | 1012.1 |
| 20260502065804 | 60 | 0 | 0.0 | 0.0 | 0.00 | 0.00 | 0.00 | 69 | 1012.0 |
| 20260502065625 | 60 | 0 | 0.0 | 0.0 | 0.00 | 0.00 | 0.00 | 69 | 1012.1 |
| 20260502065404 | 60 | 0 | 0.0 | 0.0 | 0.00 | 0.00 | 0.00 | 68 | 1012.0 |
| 20260502065204 | 61 | 0 | 0.0 | 0.0 | 0.00 | 0.00 | 0.00 | 68 | 1012.0 |
| 20260502065004 | 61 | 0 | 0.0 | 0.0 | 0.00 | 0.00 | 0.00 | 68 | 1012.1 |
| 20260502064804 | 61 | 0 | 0.0 | 0.0 | 0.00 | 0.00 | 0.00 | 67 | 1012.1 |
| 20260502064604 | 61 | 0 | 0.0 | 0.0 | 0.00 | 0.00 | 0.00 | 67 | 1012.1 |
| 20260502064404 | 61 | 0 | 0.0 | 0.0 | 0.00 | 0.00 | 0.00 | 68 | 1012.0 |
| 20260502064204 | 60 | 0 | 0.0 | 0.0 | 0.00 | 0.00 | 0.00 | 69 | 1012.1 |
| 20260502064025 | 60 | 0 | 0.0 | 0.0 | 0.00 | 0.00 | 0.00 | 69 | 1012.0 |
| 20260502063804 | 60 | 0 | 0.0 | 0.0 | 0.00 | 0.00 | 0.00 | 69 | 1012.1 |
| 20260502063604 | 60 | 0 | 0.0 | 0.0 | 0.00 | 0.00 | 0.00 | 68 | 1012.0 |
| 20260502063404 | 60 | 0 | 0.0 | 0.0 | 0.00 | 0.00 | 0.00 | 68 | 1012.1 |
| 20260502063225 | 60 | 0 | 0.0 | 0.0 | 0.00 | 0.00 | 0.00 | 68 | 1012.1 |
| 20260502063025 | 60 | 0 | 0.0 | 0.0 | 0.00 | 0.00 | 0.00 | 68 | 1012.1 |
| 20260502062804 | 60 | 0 | 0.0 | 0.0 | 0.00 | 0.00 | 0.00 | 68 | 1012.1 |
| 20260502062626 | 60 | 0 | 0.0 | 0.0 | 0.00 | 0.00 | 0.00 | 68 | 1012.1 |
| 20260502062404 | 60 | 0 | 0.0 | 0.0 | 0.00 | 0.00 | 0.00 | 68 | 1012.1 |
| 20260502062204 | 60 | 0 | 0.0 | 0.0 | 0.00 | 0.00 | 0.00 | 68 | 1012.2 |
| 20260502062004 | 60 | 0 | 0.0 | 0.0 | 0.00 | 0.00 | 0.00 | 68 | 1012.1 |
| 20260502061804 | 60 | 0 | 0.0 | 0.0 | 0.00 | 0.00 | 0.00 | 68 | 1012.1 |
| 20260502061604 | 60 | 0 | 0.0 | 0.0 | 0.00 | 0.00 | 0.00 | 68 | 1012.1 |
| 20260502061404 | 60 | 0 | 0.0 | 0.0 | 0.00 | 0.00 | 0.00 | 68 | 1012.2 |
| 20260502061204 | 60 | 0 | 0.0 | 0.0 | 0.00 | 0.00 | 0.00 | 68 | 1012.1 |
| 20260502061004 | 60 | 0 | 0.0 | 0.0 | 0.00 | 0.00 | 0.00 | 69 | 1012.2 |
| 20260502060825 | 60 | 0 | 0.0 | 0.0 | 0.00 | 0.00 | 0.00 | 69 | 1012.2 |
| 20260502060604 | 59 | 0 | 0.0 | 0.0 | 0.00 | 0.00 | 0.00 | 69 | 1012.2 |
| 20260502060404 | 59 | 0 | 0.0 | 0.0 | 0.00 | 0.00 | 0.00 | 69 | 1012.2 |
| 20260502060204 | 59 | 0 | 0.0 | 0.0 | 0.00 | 0.00 | 0.00 | 69 | 1012.2 |
| 20260502060004 | 59 | 0 | 0.0 | 0.0 | 0.00 | 0.00 | 0.00 | 69 | 1012.2 |
| 20260502055804 | 59 | 0 | 0.0 | 0.0 | 0.00 | 0.00 | 0.00 | 69 | 1012.2 |
| 20260502055604 | 59 | 0 | 0.0 | 0.0 | 0.00 | 0.00 | 0.00 | 69 | 1012.2 |
| 20260502055425 | 59 | 85 | 0.0 | 1.0 | 0.00 | 0.00 | 0.00 | 69 | 1012.2 |
| 20260502055204 | 59 | 93 | 0.0 | 2.0 | 0.00 | 0.00 | 0.00 | 69 | 1012.2 |
| 20260502055025 | 60 | 96 | 0.0 | 2.0 | 0.00 | 0.00 | 0.00 | 69 | 1012.2 |
| 20260502054825 | 60 | 89 | 1.0 | 3.0 | 0.00 | 0.00 | 0.00 | 68 | 1012.2 |
| 20260502054604 | 60 | 88 | 1.0 | 3.0 | 0.00 | 0.00 | 0.00 | 68 | 1012.2 |
| 20260502054404 | 60 | 88 | 1.0 | 3.0 | 0.00 | 0.00 | 0.00 | 68 | 1012.3 |
| 20260502054225 | 60 | 87 | 1.0 | 3.0 | 0.00 | 0.00 | 0.00 | 68 | 1012.2 |
| 20260502054004 | 60 | 82 | 0.0 | 3.0 | 0.00 | 0.00 | 0.00 | 68 | 1012.2 |
| 20260502053804 | 60 | 90 | 0.0 | 2.0 | 0.00 | 0.00 | 0.00 | 68 | 1012.2 |
| 20260502053604 | 60 | 0 | 0.0 | 0.0 | 0.00 | 0.00 | 0.00 | 68 | 1012.2 |
| 20260502053405 | 60 | 0 | 0.0 | 0.0 | 0.00 | 0.00 | 0.00 | 68 | 1012.3 |
| 20260502053204 | 60 | 0 | 0.0 | 0.0 | 0.00 | 0.00 | 0.00 | 68 | 1012.3 |
| 20260502053004 | 60 | 0 | 0.0 | 0.0 | 0.00 | 0.00 | 0.00 | 68 | 1012.3 |
| 20260502052804 | 60 | 0 | 0.0 | 0.0 | 0.00 | 0.00 | 0.00 | 68 | 1012.2 |
| 20260502052604 | 59 | 0 | 0.0 | 0.0 | 0.00 | 0.00 | 0.00 | 68 | 1012.3 |
| 20260502052404 | 59 | 0 | 0.0 | 0.0 | 0.00 | 0.00 | 0.00 | 68 | 1012.2 |
| 20260502052204 | 59 | 0 | 0.0 | 0.0 | 0.00 | 0.00 | 0.00 | 69 | 1012.2 |
| 20260502052004 | 58 | 0 | 0.0 | 0.0 | 0.00 | 0.00 | 0.00 | 70 | 1012.2 |
| 20260502051805 | 58 | 0 | 0.0 | 0.0 | 0.00 | 0.00 | 0.00 | 71 | 1012.1 |
| 20260502051604 | 58 | 0 | 0.0 | 0.0 | 0.00 | 0.00 | 0.00 | 70 | 1012.2 |
| 20260502051425 | 58 | 0 | 0.0 | 0.0 | 0.00 | 0.00 | 0.00 | 70 | 1012.2 |
| 20260502051225 | 57 | 0 | 0.0 | 0.0 | 0.00 | 0.00 | 0.00 | 70 | 1012.2 |
| 20260502051004 | 58 | 0 | 0.0 | 0.0 | 0.00 | 0.00 | 0.00 | 70 | 1012.2 |
| 20260502050825 | 58 | 0 | 0.0 | 0.0 | 0.00 | 0.00 | 0.00 | 70 | 1012.2 |
| 20260502050625 | 58 | 0 | 0.0 | 0.0 | 0.00 | 0.00 | 0.00 | 72 | 1012.2 |
| 20260502050404 | 58 | 0 | 0.0 | 0.0 | 0.00 | 0.00 | 0.00 | 73 | 1012.2 |
| 20260502050204 | 58 | 0 | 0.0 | 0.0 | 0.00 | 0.00 | 0.00 | 76 | 1012.2 |
| 20260502050004 | 58 | 0 | 0.0 | 0.0 | 0.00 | 0.00 | 0.00 | 78 | 1012.1 |
| 20260502045825 | 58 | 0 | 0.0 | 0.0 | 0.00 | 0.00 | 0.00 | 79 | 1012.2 |
| 20260502045625 | 58 | 0 | 0.0 | 0.0 | 0.00 | 0.00 | 0.00 | 80 | 1012.1 |
| 20260502045225 | 58 | 0 | 0.0 | 0.0 | 0.00 | 0.00 | 0.00 | 81 | 1012.1 |
| 20260502045004 | 58 | 0 | 0.0 | 0.0 | 0.00 | 0.00 | 0.00 | 81 | 1012.1 |
| 20260502044804 | 58 | 0 | 0.0 | 0.0 | 0.00 | 0.00 | 0.00 | 81 | 1012.1 |
| 20260502044604 | 58 | 0 | 0.0 | 0.0 | 0.00 | 0.00 | 0.00 | 81 | 1012.1 |
| 20260502044404 | 58 | 0 | 0.0 | 0.0 | 0.00 | 0.00 | 0.00 | 81 | 1012.1 |
| 20260502044225 | 58 | 0 | 0.0 | 0.0 | 0.00 | 0.00 | 0.00 | 81 | 1012.0 |
| 20260502044004 | 58 | 0 | 0.0 | 0.0 | 0.00 | 0.00 | 0.00 | 80 | 1012.1 |
| 20260502043804 | 58 | 0 | 0.0 | 0.0 | 0.00 | 0.00 | 0.00 | 80 | 1012.0 |
| 20260502043604 | 59 | 0 | 0.0 | 0.0 | 0.00 | 0.00 | 0.00 | 79 | 1012.0 |
| 20260502043404 | 59 | 0 | 0.0 | 0.0 | 0.00 | 0.00 | 0.00 | 79 | 1012.1 |
| 20260502043204 | 59 | 0 | 0.0 | 0.0 | 0.00 | 0.00 | 0.00 | 79 | 1012.0 |
| 20260502043004 | 59 | 0 | 0.0 | 0.0 | 0.00 | 0.00 | 0.00 | 79 | 1012.0 |
| 20260502042804 | 59 | 84 | 0.0 | 1.0 | 0.00 | 0.00 | 0.00 | 79 | 1012.0 |
| 20260502042604 | 60 | 76 | 0.0 | 2.0 | 0.00 | 0.00 | 0.00 | 79 | 1012.0 |
| 20260502042405 | 60 | 73 | 0.0 | 2.0 | 0.00 | 0.00 | 0.00 | 79 | 1012.1 |
| 20260502042204 | 60 | 79 | 0.0 | 3.0 | 0.00 | 0.00 | 0.00 | 78 | 1012.1 |
| 20260502042004 | 60 | 80 | 0.0 | 3.0 | 0.00 | 0.00 | 0.00 | 78 | 1012.1 |
| 20260502041804 | 60 | 79 | 0.0 | 3.0 | 0.00 | 0.00 | 0.00 | 78 | 1012.1 |
| 20260502041604 | 60 | 81 | 0.0 | 3.0 | 0.00 | 0.00 | 0.00 | 77 | 1012.1 |
| 20260502041405 | 60 | 83 | 0.0 | 3.0 | 0.00 | 0.00 | 0.00 | 77 | 1012.1 |
| 20260502041225 | 60 | 84 | 0.0 | 1.0 | 0.00 | 0.00 | 0.00 | 77 | 1012.1 |
| 20260502041004 | 60 | 0 | 0.0 | 0.0 | 0.00 | 0.00 | 0.00 | 76 | 1012.0 |
| 20260502040804 | 61 | 0 | 0.0 | 0.0 | 0.00 | 0.00 | 0.00 | 76 | 1012.0 |
| 20260502040604 | 61 | 0 | 0.0 | 0.0 | 0.00 | 0.00 | 0.00 | 76 | 1012.0 |
| 20260502040404 | 61 | 0 | 0.0 | 0.0 | 0.00 | 0.00 | 0.00 | 75 | 1012.0 |
| 20260502040204 | 61 | 0 | 0.0 | 0.0 | 0.00 | 0.00 | 0.00 | 75 | 1012.0 |
| 20260502040004 | 61 | 0 | 0.0 | 0.0 | 0.00 | 0.00 | 0.00 | 75 | 1011.9 |
| 20260502035804 | 61 | 0 | 0.0 | 0.0 | 0.00 | 0.00 | 0.00 | 75 | 1011.9 |
| 20260502035604 | 61 | 0 | 0.0 | 0.0 | 0.00 | 0.00 | 0.00 | 75 | 1011.9 |
| 20260502035404 | 62 | 47 | 0.0 | 2.0 | 0.00 | 0.00 | 0.00 | 74 | 1011.8 |
| 20260502035204 | 62 | 47 | 0.0 | 2.0 | 0.00 | 0.00 | 0.00 | 74 | 1011.8 |
| 20260502035025 | 62 | 47 | 0.0 | 2.0 | 0.00 | 0.00 | 0.00 | 74 | 1011.9 |
| 20260502034804 | 62 | 47 | 0.0 | 2.0 | 0.00 | 0.00 | 0.00 | 73 | 1011.8 |
| 20260502034604 | 62 | 47 | 0.0 | 2.0 | 0.00 | 0.00 | 0.00 | 73 | 1011.7 |
| 20260502034404 | 62 | 0 | 0.0 | 0.0 | 0.00 | 0.00 | 0.00 | 73 | 1011.6 |
| 20260502034204 | 62 | 0 | 0.0 | 0.0 | 0.00 | 0.00 | 0.00 | 72 | 1011.6 |
| 20260502034004 | 62 | 0 | 0.0 | 0.0 | 0.00 | 0.00 | 0.00 | 71 | 1011.6 |
| 20260502033825 | 62 | 0 | 0.0 | 0.0 | 0.00 | 0.00 | 0.00 | 70 | 1011.5 |
| 20260502033604 | 63 | 0 | 0.0 | 0.0 | 0.00 | 0.00 | 0.00 | 70 | 1011.5 |
| 20260502033404 | 63 | 0 | 0.0 | 0.0 | 0.00 | 0.00 | 0.00 | 69 | 1011.4 |
| 20260502033225 | 63 | 0 | 0.0 | 0.0 | 0.00 | 0.00 | 0.00 | 70 | 1011.4 |
| 20260502033004 | 63 | 0 | 0.0 | 0.0 | 0.00 | 0.00 | 0.00 | 69 | 1011.4 |
| 20260502032804 | 63 | 0 | 0.0 | 0.0 | 0.00 | 0.00 | 0.00 | 68 | 1011.4 |
| 20260502032604 | 63 | 0 | 0.0 | 0.0 | 0.00 | 0.00 | 0.00 | 68 | 1011.4 |
| 20260502032404 | 63 | 0 | 0.0 | 0.0 | 0.00 | 0.00 | 0.00 | 68 | 1011.3 |
| 20260502032205 | 64 | 0 | 0.0 | 0.0 | 0.00 | 0.00 | 0.00 | 67 | 1011.3 |
| 20260502032004 | 64 | 0 | 0.0 | 0.0 | 0.00 | 0.00 | 0.00 | 67 | 1011.3 |
| 20260502031804 | 64 | 0 | 0.0 | 0.0 | 0.00 | 0.00 | 0.00 | 66 | 1011.3 |
| 20260502031604 | 64 | 0 | 0.0 | 0.0 | 0.00 | 0.00 | 0.00 | 66 | 1011.2 |
| 20260502031404 | 64 | 0 | 0.0 | 0.0 | 0.00 | 0.00 | 0.00 | 65 | 1011.2 |
| 20260502031204 | 64 | 0 | 0.0 | 0.0 | 0.00 | 0.00 | 0.00 | 63 | 1011.2 |
| 20260502031004 | 64 | 0 | 0.0 | 0.0 | 0.00 | 0.00 | 0.00 | 63 | 1011.2 |
| 20260502030804 | 64 | 0 | 0.0 | 0.0 | 0.00 | 0.00 | 0.00 | 63 | 1011.2 |
| 20260502030604 | 64 | 0 | 0.0 | 0.0 | 0.00 | 0.00 | 0.00 | 62 | 1011.1 |
| 20260502030404 | 64 | 0 | 0.0 | 0.0 | 0.00 | 0.00 | 0.00 | 61 | 1011.1 |
| 20260502030204 | 64 | 0 | 0.0 | 0.0 | 0.00 | 0.00 | 0.00 | 60 | 1011.0 |
| 20260502030004 | 65 | 0 | 0.0 | 0.0 | 0.00 | 0.00 | 0.00 | 60 | 1011.0 |
| 20260502025804 | 65 | 0 | 0.0 | 0.0 | 0.00 | 0.00 | 0.00 | 59 | 1010.9 |
| 20260502025604 | 65 | 0 | 0.0 | 0.0 | 0.00 | 0.00 | 0.00 | 58 | 1010.9 |
| 20260502025425 | 65 | 0 | 0.0 | 0.0 | 0.00 | 0.00 | 0.00 | 58 | 1010.8 |
| 20260502025203 | 65 | 0 | 0.0 | 0.0 | 0.00 | 0.00 | 0.00 | 57 | 1010.8 |
| 20260502025004 | 66 | 0 | 0.0 | 0.0 | 0.00 | 0.00 | 0.00 | 57 | 1010.8 |
| 20260502024804 | 66 | 0 | 0.0 | 0.0 | 0.00 | 0.00 | 0.00 | 56 | 1010.8 |
| 20260502024604 | 66 | 0 | 0.0 | 0.0 | 0.00 | 0.00 | 0.00 | 56 | 1010.8 |
| 20260502024404 | 66 | 0 | 0.0 | 0.0 | 0.00 | 0.00 | 0.00 | 56 | 1010.8 |
| 20260502024204 | 67 | 0 | 0.0 | 0.0 | 0.00 | 0.00 | 0.00 | 55 | 1010.8 |
| 20260502024004 | 67 | 0 | 0.0 | 0.0 | 0.00 | 0.00 | 0.00 | 55 | 1010.7 |
| 20260502023804 | 67 | 0 | 0.0 | 0.0 | 0.00 | 0.00 | 0.00 | 55 | 1010.7 |
| 20260502023604 | 68 | 0 | 0.0 | 0.0 | 0.00 | 0.00 | 0.00 | 55 | 1010.8 |
| 20260502023404 | 68 | 0 | 0.0 | 0.0 | 0.00 | 0.00 | 0.00 | 54 | 1010.8 |
| 20260502023204 | 68 | 0 | 0.0 | 0.0 | 0.00 | 0.00 | 0.00 | 53 | 1010.8 |
| 20260502023004 | 69 | 0 | 0.0 | 0.0 | 0.00 | 0.00 | 0.00 | 52 | 1010.8 |
| 20260502022804 | 69 | 0 | 0.0 | 0.0 | 0.00 | 0.00 | 0.00 | 52 | 1010.8 |
| 20260502022625 | 69 | 0 | 0.0 | 0.0 | 0.00 | 0.00 | 0.00 | 51 | 1010.7 |
| 20260502022404 | 70 | 0 | 0.0 | 0.0 | 0.00 | 0.00 | 0.00 | 51 | 1010.7 |
| 20260502022204 | 70 | 0 | 0.0 | 0.0 | 0.00 | 0.00 | 0.00 | 51 | 1010.7 |
| 20260502022004 | 70 | 0 | 0.0 | 0.0 | 0.00 | 0.00 | 0.00 | 50 | 1010.7 |
| 20260502021804 | 70 | 0 | 0.0 | 0.0 | 0.00 | 0.00 | 0.00 | 50 | 1010.7 |
| 20260502021604 | 70 | 0 | 0.0 | 0.0 | 0.00 | 0.00 | 0.00 | 50 | 1010.7 |
| 20260502021404 | 70 | 0 | 0.0 | 0.0 | 0.00 | 0.00 | 0.00 | 50 | 1010.7 |
| 20260502021204 | 70 | 338 | 0.0 | 2.0 | 0.00 | 0.00 | 0.00 | 49 | 1010.6 |
| 20260502021025 | 71 | 338 | 0.0 | 2.0 | 0.00 | 0.00 | 0.00 | 49 | 1010.7 |
| 20260502020804 | 71 | 338 | 0.0 | 2.0 | 0.00 | 0.00 | 0.00 | 49 | 1010.7 |
| 20260502020604 | 71 | 326 | 0.0 | 2.0 | 0.00 | 0.00 | 0.00 | 49 | 1010.6 |
| 20260502020404 | 71 | 326 | 0.0 | 2.0 | 0.00 | 0.00 | 0.00 | 48 | 1010.7 |
| 20260502020204 | 71 | 309 | 0.0 | 1.0 | 0.00 | 0.00 | 0.00 | 48 | 1010.7 |
| 20260502020004 | 72 | 292 | 0.0 | 1.0 | 0.00 | 0.00 | 0.00 | 47 | 1010.7 |
| 20260502015804 | 72 | 304 | 0.0 | 3.0 | 0.00 | 0.00 | 0.00 | 47 | 1010.6 |
| 20260502015625 | 72 | 299 | 0.0 | 3.0 | 0.00 | 0.00 | 0.00 | 47 | 1010.7 |
| 20260502015404 | 72 | 296 | 1.0 | 3.0 | 0.00 | 0.00 | 0.00 | 47 | 1010.7 |
| 20260502015204 | 72 | 296 | 1.0 | 3.0 | 0.00 | 0.00 | 0.00 | 47 | 1010.6 |
| 20260502015004 | 72 | 302 | 1.0 | 3.0 | 0.00 | 0.00 | 0.00 | 46 | 1010.7 |
| 20260502014804 | 72 | 311 | 0.0 | 3.0 | 0.00 | 0.00 | 0.00 | 46 | 1010.6 |
| 20260502014625 | 73 | 325 | 0.0 | 3.0 | 0.00 | 0.00 | 0.00 | 46 | 1010.6 |
| 20260502014404 | 73 | 332 | 0.0 | 3.0 | 0.00 | 0.00 | 0.00 | 46 | 1010.6 |
| 20260502014205 | 73 | 321 | 1.0 | 4.0 | 0.00 | 0.00 | 0.00 | 46 | 1010.6 |
| 20260502014004 | 72 | 316 | 1.0 | 4.0 | 0.00 | 0.00 | 0.00 | 46 | 1010.7 |
| 20260502013825 | 72 | 299 | 2.0 | 7.0 | 0.00 | 0.00 | 0.00 | 46 | 1010.6 |
| 20260502013604 | 72 | 296 | 3.0 | 7.0 | 0.00 | 0.00 | 0.00 | 46 | 1010.6 |
| 20260502013404 | 72 | 295 | 3.0 | 7.0 | 0.00 | 0.00 | 0.00 | 45 | 1010.6 |
| 20260502013204 | 72 | 294 | 3.0 | 7.0 | 0.00 | 0.00 | 0.00 | 45 | 1010.6 |
| 20260502013004 | 73 | 297 | 3.0 | 7.0 | 0.00 | 0.00 | 0.00 | 44 | 1010.6 |
| 20260502012804 | 73 | 305 | 2.0 | 6.0 | 0.00 | 0.00 | 0.00 | 44 | 1010.6 |
| 20260502012604 | 73 | 312 | 2.0 | 6.0 | 0.00 | 0.00 | 0.00 | 45 | 1010.5 |
| 20260502012404 | 73 | 315 | 2.0 | 7.0 | 0.00 | 0.00 | 0.00 | 45 | 1010.5 |
| 20260502012204 | 73 | 319 | 2.0 | 7.0 | 0.00 | 0.00 | 0.00 | 44 | 1010.5 |
| 20260502012004 | 73 | 309 | 3.0 | 7.0 | 0.00 | 0.00 | 0.00 | 44 | 1010.5 |
| 20260502011804 | 74 | 309 | 2.0 | 7.0 | 0.00 | 0.00 | 0.00 | 44 | 1010.5 |
| 20260502011604 | 74 | 306 | 3.0 | 7.0 | 0.00 | 0.00 | 0.00 | 44 | 1010.5 |
| 20260502011404 | 74 | 302 | 3.0 | 7.0 | 0.00 | 0.00 | 0.00 | 44 | 1010.5 |
| 20260502011204 | 74 | 296 | 3.0 | 7.0 | 0.00 | 0.00 | 0.00 | 44 | 1010.5 |
| 20260502011004 | 74 | 301 | 2.0 | 6.0 | 0.00 | 0.00 | 0.00 | 43 | 1010.4 |
| 20260502010804 | 74 | 303 | 3.0 | 9.0 | 0.00 | 0.00 | 0.00 | 42 | 1010.5 |
| 20260502010604 | 74 | 302 | 3.0 | 9.0 | 0.00 | 0.00 | 0.00 | 42 | 1010.5 |
| 20260502010404 | 74 | 300 | 3.0 | 9.0 | 0.00 | 0.00 | 0.00 | 42 | 1010.6 |
| 20260502010225 | 74 | 303 | 3.0 | 9.0 | 0.00 | 0.00 | 0.00 | 42 | 1010.6 |
| 20260502010004 | 74 | 297 | 4.0 | 9.0 | 0.00 | 0.00 | 0.00 | 41 | 1010.5 |
| 20260502005804 | 75 | 297 | 4.0 | 9.0 | 0.00 | 0.00 | 0.00 | 41 | 1010.6 |
| 20260502005604 | 75 | 296 | 4.0 | 9.0 | 0.00 | 0.00 | 0.00 | 41 | 1010.5 |
| 20260502005404 | 75 | 297 | 4.0 | 9.0 | 0.00 | 0.00 | 0.00 | 41 | 1010.5 |
| 20260502005204 | 75 | 294 | 4.0 | 9.0 | 0.00 | 0.00 | 0.00 | 40 | 1010.5 |
| 20260502005025 | 75 | 295 | 3.0 | 7.0 | 0.00 | 0.00 | 0.00 | 38 | 1010.5 |
| 20260502004804 | 75 | 289 | 3.0 | 7.0 | 0.00 | 0.00 | 0.00 | 37 | 1010.5 |
| 20260502004604 | 75 | 287 | 3.0 | 7.0 | 0.00 | 0.00 | 0.00 | 38 | 1010.5 |
| 20260502004404 | 75 | 287 | 3.0 | 6.0 | 0.00 | 0.00 | 0.00 | 38 | 1010.5 |
| 20260502004225 | 75 | 284 | 3.0 | 6.0 | 0.00 | 0.00 | 0.00 | 36 | 1010.5 |
| 20260502004025 | 75 | 286 | 2.0 | 6.0 | 0.00 | 0.00 | 0.00 | 32 | 1010.4 |
| 20260502003804 | 76 | 296 | 2.0 | 6.0 | 0.00 | 0.00 | 0.00 | 34 | 1010.5 |
| 20260502003625 | 76 | 305 | 2.0 | 5.0 | 0.00 | 0.00 | 0.00 | 35 | 1010.4 |
| 20260502003404 | 76 | 310 | 2.0 | 5.0 | 0.00 | 0.00 | 0.00 | 35 | 1010.4 |
| 20260502003204 | 76 | 310 | 2.0 | 7.0 | 0.00 | 0.00 | 0.00 | 35 | 1010.4 |
| 20260502003004 | 76 | 309 | 2.0 | 7.0 | 0.00 | 0.00 | 0.00 | 35 | 1010.4 |
| 20260502002803 | 76 | 310 | 3.0 | 7.0 | 0.00 | 0.00 | 0.00 | 37 | 1010.4 |
| 20260502002604 | 76 | 303 | 3.0 | 7.0 | 0.00 | 0.00 | 0.00 | 36 | 1010.4 |
| 20260502002404 | 76 | 300 | 3.0 | 7.0 | 0.00 | 0.00 | 0.00 | 35 | 1010.4 |
| 20260502002204 | 76 | 309 | 2.0 | 6.0 | 0.00 | 0.00 | 0.00 | 36 | 1010.4 |
| 20260502002004 | 76 | 300 | 3.0 | 6.0 | 0.00 | 0.00 | 0.00 | 37 | 1010.4 |
| 20260502001804 | 75 | 295 | 3.0 | 6.0 | 0.00 | 0.00 | 0.00 | 36 | 1010.4 |
| 20260502001604 | 75 | 300 | 2.0 | 6.0 | 0.00 | 0.00 | 0.00 | 33 | 1010.3 |
| 20260502001404 | 75 | 302 | 3.0 | 6.0 | 0.00 | 0.00 | 0.00 | 33 | 1010.4 |
| 20260502001204 | 75 | 299 | 3.0 | 6.0 | 0.00 | 0.00 | 0.00 | 37 | 1010.4 |
| 20260502001004 | 75 | 311 | 2.0 | 6.0 | 0.00 | 0.00 | 0.00 | 36 | 1010.4 |
| 20260502000804 | 75 | 313 | 2.0 | 6.0 | 0.00 | 0.00 | 0.00 | 36 | 1010.4 |
| 20260502000604 | 75 | 298 | 3.0 | 10.0 | 0.00 | 0.00 | 0.00 | 35 | 1010.4 |
| 20260502000404 | 75 | 299 | 3.0 | 10.0 | 0.00 | 0.00 | 0.00 | 36 | 1010.4 |
| 20260502000204 | 75 | 292 | 3.0 | 10.0 | 0.00 | 0.00 | 0.00 | 37 | 1010.4 |
| 20260502000004 | 75 | 286 | 3.0 | 10.0 | 0.00 | 0.00 | 0.00 | 36 | 1010.3 |
| 20260501235804 | 75 | 283 | 3.0 | 10.0 | 0.00 | 0.00 | 0.00 | 37 | 1010.4 |
| 20260501235604 | 75 | 286 | 3.0 | 7.0 | 0.00 | 0.00 | 0.00 | 39 | 1010.3 |
| 20260501235425 | 75 | 284 | 3.0 | 7.0 | 0.00 | 0.00 | 0.00 | 38 | 1010.4 |
| 20260501235204 | 75 | 285 | 3.0 | 6.0 | 0.00 | 0.00 | 0.00 | 38 | 1010.4 |
| 20260501235025 | 75 | 287 | 3.0 | 6.0 | 0.00 | 0.00 | 0.00 | 36 | 1010.4 |
| 20260501234804 | 76 | 294 | 3.0 | 9.0 | 0.00 | 0.00 | 0.00 | 35 | 1010.4 |
| 20260501234604 | 76 | 298 | 3.0 | 9.0 | 0.00 | 0.00 | 0.00 | 38 | 1010.3 |
| 20260501234404 | 76 | 302 | 3.0 | 9.0 | 0.00 | 0.00 | 0.00 | 40 | 1010.4 |
| 20260501234204 | 76 | 304 | 2.0 | 9.0 | 0.00 | 0.00 | 0.00 | 38 | 1010.4 |
| 20260501234004 | 76 | 302 | 3.0 | 9.0 | 0.00 | 0.00 | 0.00 | 37 | 1010.5 |
| 20260501233804 | 76 | 301 | 2.0 | 9.0 | 0.00 | 0.00 | 0.00 | 38 | 1010.4 |
| 20260501233625 | 75 | 300 | 2.0 | 6.0 | 0.00 | 0.00 | 0.00 | 36 | 1010.5 |
| 20260501233404 | 75 | 297 | 3.0 | 7.0 | 0.00 | 0.00 | 0.00 | 37 | 1010.5 |
| 20260501233203 | 75 | 289 | 3.0 | 8.0 | 0.00 | 0.00 | 0.00 | 40 | 1010.4 |
| 20260501233004 | 75 | 295 | 3.0 | 8.0 | 0.00 | 0.00 | 0.00 | 39 | 1010.5 |
| 20260501232825 | 75 | 301 | 4.0 | 8.0 | 0.00 | 0.00 | 0.00 | 38 | 1010.4 |
| 20260501232625 | 75 | 303 | 3.0 | 8.0 | 0.00 | 0.00 | 0.00 | 38 | 1010.5 |
| 20260501232404 | 75 | 304 | 4.0 | 11.0 | 0.00 | 0.00 | 0.00 | 38 | 1010.5 |
| 20260501232203 | 76 | 305 | 4.0 | 11.0 | 0.00 | 0.00 | 0.00 | 38 | 1010.5 |
| 20260501232004 | 76 | 300 | 4.0 | 11.0 | 0.00 | 0.00 | 0.00 | 38 | 1010.5 |
| 20260501231804 | 76 | 291 | 4.0 | 11.0 | 0.00 | 0.00 | 0.00 | 40 | 1010.5 |
| 20260501231605 | 76 | 289 | 4.0 | 11.0 | 0.00 | 0.00 | 0.00 | 39 | 1010.5 |
| 20260501231404 | 76 | 287 | 4.0 | 11.0 | 0.00 | 0.00 | 0.00 | 38 | 1010.5 |
| 20260501231203 | 76 | 289 | 4.0 | 11.0 | 0.00 | 0.00 | 0.00 | 39 | 1010.6 |
| 20260501231004 | 75 | 297 | 4.0 | 11.0 | 0.00 | 0.00 | 0.00 | 37 | 1010.5 |
| 20260501230804 | 76 | 303 | 4.0 | 11.0 | 0.00 | 0.00 | 0.00 | 36 | 1010.5 |
| 20260501230604 | 76 | 304 | 4.0 | 11.0 | 0.00 | 0.00 | 0.00 | 34 | 1010.6 |
| 20260501230403 | 76 | 310 | 3.0 | 11.0 | 0.00 | 0.00 | 0.00 | 34 | 1010.5 |
| 20260501230204 | 76 | 318 | 3.0 | 6.0 | 0.00 | 0.00 | 0.00 | 34 | 1010.6 |
| 20260501230004 | 76 | 311 | 3.0 | 7.0 | 0.00 | 0.00 | 0.00 | 37 | 1010.6 |
| 20260501225825 | 76 | 305 | 3.0 | 7.0 | 0.00 | 0.00 | 0.00 | 39 | 1010.6 |
| 20260501225625 | 76 | 311 | 3.0 | 11.0 | 0.00 | 0.00 | 0.00 | 41 | 1010.7 |
| 20260501225425 | 76 | 304 | 3.0 | 11.0 | 0.00 | 0.00 | 0.00 | 39 | 1010.7 |
| 20260501225204 | 76 | 293 | 4.0 | 11.0 | 0.00 | 0.00 | 0.00 | 37 | 1010.8 |
| 20260501225004 | 76 | 290 | 4.0 | 11.0 | 0.00 | 0.00 | 0.00 | 40 | 1010.7 |
| 20260501224825 | 76 | 291 | 4.0 | 11.0 | 0.00 | 0.00 | 0.00 | 39 | 1010.8 |
| 20260501224604 | 76 | 287 | 4.0 | 9.0 | 0.00 | 0.00 | 0.00 | 38 | 1010.8 |
| 20260501224404 | 76 | 293 | 4.0 | 9.0 | 0.00 | 0.00 | 0.00 | 33 | 1010.8 |
| 20260501224203 | 76 | 302 | 4.0 | 9.0 | 0.00 | 0.00 | 0.00 | 35 | 1010.8 |
| 20260501224025 | 76 | 301 | 4.0 | 11.0 | 0.00 | 0.00 | 0.00 | 37 | 1010.8 |
| 20260501223804 | 76 | 296 | 5.0 | 11.0 | 0.00 | 0.00 | 0.00 | 36 | 1010.9 |
| 20260501223604 | 76 | 297 | 4.0 | 11.0 | 0.00 | 0.00 | 0.00 | 35 | 1010.8 |
| 20260501223403 | 76 | 294 | 5.0 | 11.0 | 0.00 | 0.00 | 0.00 | 38 | 1010.9 |
| 20260501223204 | 76 | 292 | 5.0 | 11.0 | 0.00 | 0.00 | 0.00 | 36 | 1010.9 |
| 20260501223025 | 76 | 297 | 4.0 | 10.0 | 0.00 | 0.00 | 0.00 | 36 | 1010.9 |
| 20260501222803 | 76 | 304 | 4.0 | 10.0 | 0.00 | 0.00 | 0.00 | 38 | 1010.8 |
| 20260501222604 | 76 | 303 | 4.0 | 10.0 | 0.00 | 0.00 | 0.00 | 39 | 1010.9 |
| 20260501222425 | 76 | 299 | 4.0 | 10.0 | 0.00 | 0.00 | 0.00 | 36 | 1010.9 |
| 20260501222225 | 76 | 300 | 4.0 | 10.0 | 0.00 | 0.00 | 0.00 | 40 | 1010.9 |
| 20260501222004 | 75 | 298 | 4.0 | 10.0 | 0.00 | 0.00 | 0.00 | 40 | 1010.9 |
| 20260501221804 | 75 | 293 | 4.0 | 10.0 | 0.00 | 0.00 | 0.00 | 40 | 1011.0 |
| 20260501221604 | 75 | 294 | 4.0 | 10.0 | 0.00 | 0.00 | 0.00 | 40 | 1011.0 |
| 20260501221403 | 76 | 297 | 4.0 | 10.0 | 0.00 | 0.00 | 0.00 | 42 | 1011.0 |
| 20260501221204 | 76 | 296 | 4.0 | 9.0 | 0.00 | 0.00 | 0.00 | 45 | 1011.1 |
| 20260501221004 | 75 | 290 | 3.0 | 9.0 | 0.00 | 0.00 | 0.00 | 47 | 1011.0 |
| 20260501220825 | 75 | 289 | 3.0 | 9.0 | 0.00 | 0.00 | 0.00 | 46 | 1011.0 |
| 20260501220604 | 75 | 289 | 3.0 | 9.0 | 0.00 | 0.00 | 0.00 | 46 | 1011.0 |
| 20260501220404 | 75 | 290 | 3.0 | 9.0 | 0.00 | 0.00 | 0.00 | 47 | 1011.0 |